Wind_Speed
2 2 2 4 5 6 7 7 8 9 9 10 9 10 10 10 10 10 10 10 10 10 10 10 10 10 10 9 9 9 9 9 9 9 9 9 9 8 7 7 6 5 5
1 2 3 4 5 6 7 8 8 8 9 9 9 10 10 10 10 10 10 10 10 11 11 11 11 10 10 10 10 10 10 10 10 9 9 9 9 8 8 7 6 5 5
1 2 3 5 5 6 7 8 8 9 9 9 9 9 10 10 10 10 11 11 11 11 11 11 11 11 10 10 10 10 10 10 10 10 9 9 9 9 8 8 7 6 5
1 3 4 5 5 6 7 7 8 9 9 9 9 10 10 10 11 11 12 12 12 12 12 12 12 12 11 11 10 10 9 10 10 9 9 10 10 9 9 8 7 6 5
2 3 4 4 5 6 7 7 8 8 8 9 9 10 11 11 12 12 12 13 13 12 12 12 12 12 11 11 10 10 10 10 10 10 10 10 10 10 9 8 8 7 5
2 3 4 5 6 6 7 8 8 8 8 9 10 11 11 11 12 12 12 12 12 12 13 12 12 12 11 10 10 10 9 9 9 10 10 10 9 10 9 8 8 7 6
2 3 5 6 6 6 7 8 8 8 9 9 10 10 11 11 12 12 12 12 12 12 12 12 11 11 10 10 9 9 9 9 9 9 10 10 10 10 10 9 9 8 7
2 4 5 6 6 7 7 7 8 8 9 10 10 11 11 11 12 12 13 13 12 12 11 11 11 11 10 10 10 9 9 9 9 9 9 10 10 10 10 10 9 9 8
3 4 5 6 6 6 7 7 8 8 9 10 11 11 12 12 12 13 13 13 12 12 12 11 11 11 11 10 10 9 9 9 9 9 9 9 10 10 10 10 10 9 8
4 5 5 6 6 6 7 8 8 9 10 11 11 12 12 12 13 13 13 12 12 12 12 12 11 11 11 10 10 9 9 9 9 9 9 9 10 11 11 10 10 9 9
4 4 5 5 6 7 7 8 9 10 10 11 12 12 13 13 13 13 13 13 13 12 12 12 11 11 11 11 10 9 9 9 9 10 10 10 10 11 12 11 11 10 10
4 4 5 6 7 7 7 8 9 10 10 11 12 12 13 13 13 13 13 13 12 12 12 12 11 11 11 11 10 10 10 10 10 11 11 11 11 12 12 12 11 11 11
4 5 5 6 6 7 7 9 10 10 11 11 12 13 13 13 13 13 12 12 12 12 12 12 12 12 11 11 10 10 10 10 10 11 12 12 12 13 13 13 12 11 12
4 4 5 6 6 6 7 9 10 10 11 11 12 13 13 13 14 13 12 13 13 13 13 13 12 12 11 11 10 10 10 10 11 11 12 13 13 14 13 13 13 12 12
3 4 5 5 5 6 7 8 9 10 11 11 12 12 13 14 14 14 13 14 14 14 14 13 13 12 11 10 9 9 10 10 11 11 12 13 14 14 14 14 14 14 13
3 3 4 4 5 6 7 7 9 10 10 11 12 13 13 14 14 14 15 15 15 15 14 14 13 12 10 9 8 8 8 9 10 10 12 13 14 14 15 15 15 15 14
2 3 3 3 4 5 6 7 8 9 10 11 12 13 13 14 15 15 16 16 16 16 15 15 13 12 10 9 7 7 7 7 9 10 11 13 14 15 16 16 16 16 15
2 2 2 2 3 4 5 6 8 9 10 11 12 13 13 14 15 16 16 17 17 16 15 15 13 12 11 9 7 6 6 6 7 9 11 12 14 14 15 16 17 17 16
2 1 1 2 2 3 5 7 8 9 10 11 12 13 14 15 16 16 17 17 17 17 16 15 13 12 11 9 7 5 4 4 5 7 9 11 13 14 15 16 17 17 17
2 1 0 1 2 4 5 7 8 9 10 11 12 13 14 15 16 17 18 18 18 18 17 15 14 12 11 9 8 6 4 3 3 5 7 10 12 14 15 16 17 18 19
2 1 1 1 2 4 6 8 9 10 11 12 13 14 15 15 16 18 19 19 19 18 17 16 14 13 12 10 9 7 5 3 2 4 6 8 11 13 15 16 17 18 19
2 2 1 2 3 5 6 8 9 10 11 13 14 14 15 16 17 18 19 20 20 18 17 17 15 14 13 11 9 8 6 3 1 1 4 7 10 12 14 15 17 18 19
3 2 2 2 4 5 6 7 9 10 11 13 14 15 15 16 18 19 19 20 20 19 18 18 16 15 14 12 11 10 8 5 3 1 2 4 8 10 12 14 16 18 19
4 3 3 3 4 4 6 7 9 10 11 13 14 15 16 17 18 19 20 20 20 20 19 19 17 16 15 13 12 11 9 7 5 2 1 2 6 8 11 13 15 17 19
5 5 4 3 3 4 5 7 8 10 11 12 14 15 16 16 17 18 19 20 20 20 20 20 19 18 16 14 13 12 11 9 7 4 2 1 3 6 9 11 14 17 19
7 6 4 3 3 3 5 6 8 9 10 12 13 14 15 16 17 18 19 20 20 20 20 21 20 19 18 16 14 13 11 10 8 6 3 1 1 4 7 9 12 15 17
Wind_Direction
358 14 352 346 346 343 345 344 341 343 342 340 339 339 340 337 334 332 330 327 325 323 320 315 308 303 300 295 288 279 273 268 263 262 261 255 252 253 254 256 259 261 256
5 10 350 339 341 340 340 340 341 340 339 338 336 335 334 333 331 329 327 324 321 319 317 316 312 307 302 298 290 279 274 274 268 262 257 252 251 249 248 249 254 257 253
344 349 341 333 333 336 337 338 339 337 336 334 335 335 333 331 329 327 326 323 320 317 314 313 312 309 304 299 293 283 273 271 270 264 255 248 246 247 247 247 248 251 251
327 330 330 330 328 331 333 333 334 334 332 332 333 333 331 329 328 326 323 321 320 317 313 312 310 308 304 300 295 287 276 270 267 262 255 248 242 243 244 246 244 246 249
323 325 328 332 328 329 331 332 333 332 331 330 331 331 329 328 327 325 323 322 320 316 312 310 310 308 303 300 296 289 279 271 265 259 254 249 242 238 238 241 239 241 243
324 325 328 329 326 327 329 330 330 330 330 329 329 329 328 328 328 325 323 321 318 315 311 310 310 308 304 300 297 292 281 272 266 261 253 247 243 235 232 235 237 236 234
324 324 325 326 324 325 328 329 328 329 328 327 329 329 329 329 328 324 321 320 318 315 312 310 310 308 306 301 297 292 284 273 264 260 253 245 240 234 230 232 233 232 226
314 320 320 323 326 326 326 326 330 329 328 328 330 329 329 328 327 324 320 318 317 315 312 310 308 307 307 302 296 288 280 273 264 259 249 242 236 232 228 227 227 226 219
312 318 320 326 329 329 330 331 331 329 330 329 329 330 329 328 326 324 321 319 317 314 312 311 308 306 305 303 297 288 276 269 261 255 245 239 234 229 225 223 222 223 217
320 324 327 330 332 331 331 332 331 332 332 331 330 330 329 327 327 326 325 322 320 317 314 312 308 305 303 299 295 288 275 266 257 250 242 237 231 224 221 221 219 218 212
327 329 330 330 331 329 330 333 333 333 334 334 333 332 332 331 330 330 328 326 321 318 316 313 310 305 301 296 292 285 273 262 253 246 240 233 227 222 218 217 216 214 206
325 328 330 331 331 332 336 338 336 335 337 337 337 337 337 337 336 333 331 329 326 322 320 316 312 307 302 297 290 281 271 260 252 244 237 232 226 222 216 214 213 210 203
320 323 326 331 335 340 342 340 336 337 339 339 341 341 342 342 341 337 336 335 333 329 324 320 316 310 302 296 289 278 268 258 252 243 235 231 226 222 217 213 210 206 202
316 320 322 331 338 341 341 338 338 340 342 343 345 346 348 348 348 346 344 344 342 338 332 326 321 314 306 297 289 278 269 259 251 243 235 229 226 221 215 211 208 202 200
312 316 319 331 338 340 341 339 341 343 346 348 349 348 349 349 351 351 349 348 346 343 339 336 330 321 311 303 294 280 269 259 250 241 233 227 224 220 214 209 206 202 198
313 315 314 325 332 336 340 341 346 349 351 352 352 352 352 353 355 355 355 352 349 346 344 341 337 331 322 313 301 285 273 261 248 237 230 224 222 219 214 207 204 201 198
297 298 307 319 327 338 345 350 352 355 356 356 357 357 357 357 358 357 356 354 352 350 347 345 343 340 335 325 312 296 284 266 247 236 228 221 218 215 211 206 203 200 199
273 279 299 314 332 347 356 360 360 1 360 359 359 359 359 359 360 359 358 357 356 354 351 351 350 347 344 337 327 309 290 267 247 236 227 219 214 211 209 207 204 199 197
256 252 295 329 353 10 12 10 9 8 5 2 2 1 360 1 2 2 2 2 1 359 358 358 357 357 356 353 346 332 305 273 245 232 223 216 211 209 208 208 205 201 198
237 226 291 355 20 27 23 18 16 15 11 9 8 7 6 6 5 6 6 6 6 7 8 7 7 6 6 5 1 355 339 310 251 229 220 214 211 208 208 207 206 203 201
213 173 119 62 40 37 33 27 23 20 19 18 16 15 13 11 11 10 10 10 11 12 14 14 13 11 12 11 10 10 6 351 279 224 217 213 210 209 209 208 206 205 203
193 163 123 82 60 51 43 33 26 24 23 22 20 19 19 18 17 17 15 14 15 16 17 18 18 18 16 15 16 17 19 21 10 201 204 208 206 208 209 209 208 208 207
187 163 134 101 76 62 49 36 28 24 23 23 23 23 23 21 20 20 19 18 19 20 20 20 20 20 19 21 23 24 27 33 41 87 182 200 203 206 209 211 211 211 210
181 166 146 119 91 69 49 37 31 27 27 26 25 24 24 23 21 21 21 21 22 23 24 23 22 22 23 27 30 30 30 33 38 51 117 188 201 208 211 213 212 213 211
178 168 153 129 98 70 50 41 35 32 29 27 26 25 25 24 23 23 22 24 24 25 26 27 26 25 25 28 30 31 32 34 36 36 50 156 201 210 214 215 215 214 213
179 171 157 136 107 71 51 42 36 32 29 27 26 25 25 24 23 23 22 23 24 26 27 28 29 27 28 29 30 29 28 28 27 29 41 52 231 225 224 221 218 217 216
Height
5886 5886 5885 5885 5884 5884 5883 5882 5881 5880 5880 5879 5877 5877 5876 5875 5874 5873 5872 5871 5870 5870 5869 5869 5868 5868 5868 5868 5868 5869 5870 5870 5871 5871 5872 5873 5874 5875 5876 5877 5878 5878 5879
5886 5886 5885 5885 5884 5883 5883 5882 5881 5880 5879 5878 5877 5876 5875 5874 5873 5872 5871 5870 5869 5868 5868 5867 5867 5867 5866 5866 5867 5867 5868 5868 5869 5869 5870 5871 5872 5873 5875 5875 5876 5877 5878
5886 5886 5885 5885 5884 5883 5882 5881 5880 5879 5878 5877 5876 5875 5874 5873 5872 5871 5870 5869 5868 5867 5866 5866 5865 5865 5865 5865 5865 5865 5865 5866 5867 5867 5868 5869 5870 5872 5873 5874 5875 5876 5876
5885 5885 5885 5884 5883 5883 5882 5881 5880 5879 5878 5877 5876 5874 5873 5872 5871 5870 5869 5867 5866 5865 5865 5864 5864 5863 5863 5863 5863 5863 5863 5864 5864 5865 5866 5867 5869 5870 5871 5872 5873 5874 5875
5885 5885 5884 5884 5883 5882 5881 5880 5879 5878 5877 5876 5875 5874 5872 5871 5870 5869 5867 5866 5865 5864 5863 5862 5862 5861 5861 5861 5860 5861 5861 5861 5862 5863 5864 5865 5867 5868 5869 5871 5872 5873 5874
5885 5884 5884 5883 5882 5882 5881 5880 5879 5877 5876 5875 5874 5873 5872 5870 5869 5868 5866 5865 5864 5863 5861 5861 5860 5859 5859 5858 5858 5858 5859 5859 5860 5861 5862 5863 5865 5866 5868 5869 5870 5871 5872
5885 5884 5883 5883 5882 5881 5880 5879 5878 5877 5875 5874 5873 5872 5871 5869 5868 5866 5865 5864 5862 5861 5860 5859 5858 5857 5857 5856 5856 5856 5857 5857 5858 5859 5860 5861 5863 5864 5866 5867 5869 5870 5871
5884 5884 5883 5882 5881 5880 5879 5878 5877 5876 5875 5874 5872 5871 5870 5868 5867 5865 5864 5862 5861 5859 5858 5857 5856 5855 5854 5854 5854 5854 5855 5855 5856 5857 5858 5859 5861 5862 5864 5866 5867 5868 5870
5884 5883 5882 5882 5881 5880 5879 5878 5877 5876 5874 5873 5872 5870 5869 5867 5865 5864 5862 5860 5859 5857 5856 5855 5854 5853 5852 5852 5852 5852 5852 5853 5853 5854 5856 5857 5859 5860 5862 5864 5865 5867 5868
5883 5883 5882 5881 5880 5879 5878 5877 5876 5875 5874 5872 5871 5869 5868 5866 5864 5862 5860 5858 5857 5855 5854 5852 5851 5850 5850 5849 5849 5849 5849 5850 5851 5852 5853 5855 5857 5858 5860 5862 5863 5865 5867
5883 5882 5881 5881 5880 5879 5878 5877 5876 5875 5873 5872 5870 5869 5867 5865 5863 5861 5859 5857 5855 5853 5852 5850 5849 5848 5847 5846 5846 5846 5847 5848 5849 5850 5851 5852 5854 5856 5858 5860 5862 5863 5865
5882 5882 5881 5880 5879 5878 5878 5877 5876 5874 5873 5871 5870 5868 5866 5864 5861 5859 5857 5855 5853 5851 5850 5848 5847 5845 5844 5844 5843 5843 5844 5845 5846 5847 5848 5850 5852 5854 5856 5858 5860 5862 5864
5882 5881 5880 5880 5879 5878 5877 5876 5875 5874 5872 5871 5869 5867 5865 5863 5860 5858 5856 5854 5851 5849 5848 5846 5844 5843 5842 5841 5840 5840 5841 5842 5843 5844 5846 5847 5849 5852 5854 5856 5858 5860 5862
5881 5880 5880 5879 5879 5878 5877 5876 5875 5873 5872 5870 5868 5866 5864 5862 5859 5857 5855 5852 5850 5848 5846 5844 5842 5840 5839 5838 5837 5837 5838 5839 5840 5841 5843 5845 5847 5849 5852 5854 5857 5859 5861
5880 5880 5880 5879 5878 5878 5877 5876 5875 5873 5871 5870 5868 5866 5864 5861 5859 5856 5854 5851 5849 5846 5844 5841 5839 5837 5836 5835 5834 5834 5835 5835 5837 5838 5840 5842 5844 5846 5849 5852 5854 5857 5859
5880 5880 5879 5879 5878 5878 5877 5876 5874 5873 5871 5869 5868 5866 5863 5861 5858 5856 5853 5850 5847 5845 5842 5840 5837 5835 5834 5832 5832 5832 5832 5832 5834 5835 5837 5839 5841 5844 5846 5849 5852 5855 5858
5880 5880 5879 5879 5878 5878 5877 5876 5874 5873 5871 5869 5867 5865 5863 5861 5858 5855 5852 5849 5846 5843 5841 5838 5835 5833 5832 5830 5829 5829 5829 5830 5831 5832 5834 5836 5839 5841 5844 5847 5850 5853 5856
5880 5880 5880 5879 5878 5878 5877 5876 5874 5873 5871 5869 5867 5865 5863 5860 5858 5855 5852 5849 5845 5842 5839 5836 5834 5832 5830 5828 5828 5827 5827 5827 5828 5830 5831 5833 5836 5839 5842 5845 5848 5851 5854
5880 5880 5879 5879 5878 5878 5877 5876 5874 5873 5871 5869 5867 5865 5863 5860 5857 5854 5851 5848 5845 5841 5838 5835 5832 5830 5829 5827 5826 5825 5825 5825 5826 5827 5829 5831 5834 5837 5840 5843 5846 5849 5852
5880 5879 5879 5879 5879 5878 5877 5876 5875 5873 5871 5869 5867 5865 5863 5860 5857 5854 5851 5848 5844 5841 5838 5835 5832 5830 5828 5826 5825 5824 5824 5824 5824 5826 5827 5829 5832 5834 5837 5840 5844 5847 5850
5879 5879 5879 5879 5879 5878 5877 5876 5875 5873 5872 5870 5868 5865 5863 5860 5857 5854 5851 5848 5844 5841 5838 5835 5833 5830 5828 5826 5825 5824 5824 5823 5824 5825 5826 5828 5830 5833 5835 5838 5841 5845 5848
5879 5879 5879 5879 5879 5878 5877 5876 5875 5874 5872 5870 5868 5866 5864 5861 5858 5855 5852 5849 5845 5842 5839 5836 5833 5831 5829 5827 5826 5825 5824 5824 5823 5824 5825 5827 5829 5831 5834 5837 5839 5843 5846
5879 5879 5879 5879 5879 5878 5878 5877 5876 5874 5873 5871 5869 5867 5864 5862 5859 5856 5853 5850 5846 5843 5840 5837 5834 5832 5830 5828 5827 5826 5825 5824 5824 5825 5825 5827 5828 5830 5833 5835 5838 5841 5844
5879 5879 5879 5879 5879 5879 5878 5877 5876 5875 5873 5872 5870 5868 5865 5863 5860 5857 5854 5851 5848 5844 5841 5838 5835 5833 5831 5829 5828 5827 5826 5825 5825 5825 5826 5827 5828 5829 5831 5833 5836 5839 5841
5878 5879 5879 5880 5879 5879 5878 5878 5877 5876 5874 5872 5870 5868 5866 5864 5861 5858 5855 5852 5849 5846 5843 5840 5837 5834 5832 5830 5829 5828 5827 5826 5826 5826 5826 5827 5828 5829 5830 5832 5834 5837 5839
5878 5878 5879 5879 5880 5879 5879 5878 5878 5876 5875 5873 5871 5869 5867 5865 5862 5860 5857 5854 5851 5848 5845 5842 5839 5836 5834 5832 5830 5829 5828 5828 5827 5827 5827 5827 5828 5829 5830 5831 5833 5835 5837